Flag for Mexico Weather past 2 weeks in Cancún, Quintana Roo, Mexico

Now
75 °F

Broken clouds.


Feels Like: 75 °F
Forecast: N/A
Wind: 6 mph from Northwest

Location: Cancun International Airport

Current Time: Dec 25, 2014 at 5:30:17 PM

Latest Report: Dec 25, 2014 at 3:46 PM


Visibility: 7 mi

Pressure: 30.06 "Hg

Humidity: 89%

Dew point: 72 °F

Location of CancúnLocation

Historic Weather in Cancún — Graph

°F

Cancún temperature yesterday

Maximum temperature yesterday: 84 °F (at 10:45 AM)
Minimum temperature yesterday: 73 °F (at 9:48 PM)
Average temperature yesterday: 80 °F

Past Weeks' High & Low Weather Summary

 TemperatureHumidityPressure
High84 °F (Dec 24, 10:45 AM)100% (Dec 12, 10:47 PM)30.19 "Hg (Dec 12, 10:47 PM)
Low55 °F (Dec 15, 3:47 AM)51% (Dec 12, 11:42 AM)29.75 "Hg (Dec 23, 2:47 PM)
Average72 °F81%30.03 "Hg
* Reported Dec 10 3:50 PM — Dec 25 3:46 PM, Cancún, Weather by CustomWeather, © 2014

Note: Actual official high and low records may vary slightly from our data, if they occured in-between our weather recording intervals... More about our weather records

Advertising

Cancún weather history for previous 24 hours

 ConditionsComfort  
Time TempWeatherWind HumidityBarometerVisibility
3:46 PM
Dec 25
75 °FBroken clouds.6 mph89%30.06 "Hg7 mi
2:45 PM75 °FMostly cloudy.5 mph83%30.05 "Hg6 mi
12:45 PM79 °FBroken clouds.8 mph74%30.08 "Hg7 mi
11:47 AM77 °FMore clouds than sun.8 mph74%30.08 "Hg6 mi
10:49 AM79 °FScattered clouds.10 mph70%30.13 "Hg7 mi
9:44 AM77 °FBroken clouds.7 mph74%30.14 "Hg7 mi
8:46 AM75 °FScattered clouds.7 mph74%30.11 "Hg7 mi
7:46 AM70 °FScattered clouds.6 mph88%30.12 "Hg6 mi
6:45 AM70 °FCloudy.8 mph88%30.11 "Hg6 mi
5:45 AM70 °FMostly cloudy.9 mph88%29.99 "Hg6 mi
4:46 AM70 °FMostly cloudy.7 mph94%30.07 "Hg6 mi
3:47 AM72 °FMostly cloudy.9 mph88%30.06 "Hg6 mi
2:48 AM72 °FMostly cloudy.9 mph88%29.97 "Hg6 mi
1:44 AM72 °FOvercast.7 mph88%30.04 "Hg6 mi
12:45 AM72 °FMostly cloudy.7 mph88%30.04 "Hg6 mi
11:47 PM
Dec 24
73 °FMostly cloudy.6 mph83%30.00 "Hg6 mi
10:47 PM73 °FMostly cloudy.10 mph89%30.04 "Hg6 mi
9:48 PM73 °FMostly cloudy.20 mph89%30.03 "Hg6 mi
Weather by CustomWeather, © 2014

See weather overviewHow to use our weather pages